WX6HNX-5 Weather Reports


time (UTC)temp
C
wind
direction
speed
KPH
gust
KPH
rain 1hr
cm
rain 24hr
cm
rain mn
cm
humidity
%
barometer
mb
20260506015502 20 256 1.6 9.7 0.00 0.00 0.00 53 1013.8
20260506015002 20 254 1.6 9.7 0.00 0.00 0.00 54 1013.7
20260506014502 20 232 1.6 8.0 0.00 0.00 0.00 53 1013.8
20260506014002 20 194 3.2 6.4 0.00 0.00 0.00 52 1013.7
20260506013502 20 0 0.0 4.8 0.00 0.00 0.00 51 1013.8
20260506013002 20 0 0.0 4.8 0.00 0.00 0.00 52 1013.7
20260506012502 21 272 1.6 4.8 0.00 0.00 0.00 49 1013.7
20260506012001 21 0 0.0 4.8 0.00 0.00 0.00 49 1013.7
20260506011502 21 0 0.0 3.2 0.00 0.00 0.00 50 1013.7
20260506011001 21 0 0.0 3.2 0.00 0.00 0.00 50 1013.7
20260506010502 20 0 0.0 8.0 0.00 0.00 0.00 51 1013.7
20260506010001 20 0 0.0 8.0 0.00 0.00 0.00 51 1013.8
20260506005501 20 334 1.6 6.4 0.00 0.00 0.00 52 1013.7
20260506005001 20 0 0.0 3.2 0.00 0.00 0.00 52 1013.6
20260506004503 20 0 0.0 6.4 0.00 0.00 0.00 53 1013.6
20260506004002 20 319 1.6 6.4 0.00 0.00 0.00 54 1013.6
20260506003501 19 0 0.0 6.4 0.00 0.00 0.00 55 1013.6
20260506003001 19 329 1.6 6.4 0.00 0.00 0.00 56 1013.6
20260506002502 18 302 3.2 6.4 0.00 0.00 0.00 56 1013.7
20260506002002 18 0 0.0 6.4 0.00 0.00 0.00 56 1013.7
20260506001503 18 281 1.6 6.4 0.00 0.00 0.00 56 1013.7
20260506001002 18 272 4.8 9.7 0.00 0.00 0.00 56 1013.8
20260506000503 18 294 3.2 9.7 0.00 0.00 0.00 56 1013.8
20260506000001 18 0 0.0 6.4 0.00 0.00 0.00 56 1013.8
20260505235501 18 0 0.0 6.4 0.00 0.00 0.00 56 1013.8
20260505235001 18 333 3.2 8.0 0.00 0.00 0.00 56 1013.8
20260505234502 18 347 3.2 8.0 0.00 0.00 0.00 56 1013.9
20260505234002 18 357 3.2 12.9 0.00 0.00 0.00 56 1014.0
20260505233504 18 2 4.8 12.9 0.00 0.00 0.00 56 1014.0
20260505233004 18 0 0.0 8.0 0.00 0.00 0.00 56 1014.0
20260505232502 18 318 3.2 8.0 0.00 0.00 0.00 56 1014.0
20260505232002 18 328 3.2 8.0 0.00 0.00 0.00 57 1014.0
20260505231501 18 312 3.2 8.0 0.00 0.00 0.00 56 1013.9
20260505231002 18 302 1.6 6.4 0.00 0.00 0.00 57 1014.0
20260505230002 18 340 1.6 8.0 0.00 0.00 0.00 59 1014.0
20260505225501 18 360 3.2 9.7 0.00 0.00 0.00 60 1014.1
20260505225001 18 307 6.4 9.7 0.00 0.00 0.00 61 1014.2
20260505224502 18 0 0.0 6.4 0.00 0.00 0.00 60 1014.2
20260505224002 18 52 3.2 8.0 0.00 0.00 0.00 61 1014.3
20260505223502 18 326 1.6 8.0 0.00 0.00 0.00 61 1014.3
20260505223001 18 0 0.0 8.0 0.00 0.00 0.00 62 1014.4
20260505222501 17 0 0.0 8.0 0.00 0.00 0.00 63 1014.3
20260505222003 17 0 0.0 11.3 0.00 0.00 0.00 67 1014.3
20260505221502 17 93 3.2 16.1 0.00 0.00 0.00 69 1014.4
20260505221002 17 79 4.8 16.1 0.00 0.00 0.00 71 1014.4
20260505220501 17 77 9.7 16.1 0.00 0.00 0.00 69 1014.5
20260505220001 17 78 9.7 17.7 0.00 0.00 0.00 67 1014.5
20260505215501 17 77 9.7 17.7 0.00 0.00 0.00 66 1014.6
20260505214912 17 60 9.7 19.3 0.00 0.00 0.00 67 1014.7
20260505214413 17 59 11.3 17.7 0.00 0.00 0.00 68 1014.7
20260505213913 17 73 11.3 20.9 0.00 0.00 0.00 67 1014.8
20260505213413 17 65 14.5 20.9 0.00 0.00 0.00 65 1014.8
20260505212915 18 59 14.5 20.9 0.00 0.00 0.00 62 1014.8
20260505212227 18 348 3.2 11.3 0.00 0.00 0.00 59 1014.8
20260505211726 18 324 3.2 11.3 0.00 0.00 0.00 58 1014.8
20260505211228 18 23 3.2 11.3 0.00 0.00 0.00 57 1014.8
20260505210226 18 0 0.0 6.4 0.00 0.00 0.00 58 1014.7
20260505205727 18 0 0.0 8.0 0.00 0.00 0.00 58 1014.7
20260505205226 18 0 0.0 12.9 0.00 0.00 0.00 59 1014.7
20260505204727 18 62 4.8 12.9 0.00 0.00 0.00 58 1014.7
20260505204228 18 71 3.2 8.0 0.00 0.00 0.00 59 1014.8
20260505203727 18 119 1.6 14.5 0.00 0.00 0.00 60 1014.7
20260505203227 18 0 0.0 16.1 0.00 0.00 0.00 60 1014.7
20260505202727 18 82 6.4 16.1 0.00 0.00 0.00 61 1014.8
20260505202228 18 73 6.4 14.5 0.00 0.00 0.00 60 1014.8
20260505201227 18 48 1.6 4.8 0.00 0.00 0.00 59 1014.8
20260505200726 18 0 0.0 8.0 0.00 0.00 0.00 59 1014.8
20260505200227 18 311 3.2 8.0 0.00 0.00 0.00 59 1014.9
20260505195726 18 304 3.2 12.9 0.00 0.00 0.00 58 1014.8
20260505195226 18 8 4.8 12.9 0.00 0.00 0.00 59 1014.9
20260505194726 18 0 0.0 11.3 0.00 0.00 0.00 59 1015.0
20260505194227 18 63 3.2 12.9 0.00 0.00 0.00 58 1015.0
20260505193726 18 28 4.8 12.9 0.00 0.00 0.00 60 1015.0
20260505193226 18 20 1.6 11.3 0.00 0.00 0.00 62 1015.0
20260505192726 17 246 4.8 11.3 0.00 0.00 0.00 61 1015.0
20260505192226 17 302 1.6 9.7 0.00 0.00 0.00 62 1015.0
20260505191726 17 0 0.0 9.7 0.00 0.00 0.00 62 1015.1
20260505191226 17 254 3.2 9.7 0.00 0.00 0.00 62 1015.2
20260505190726 17 283 1.6 9.7 0.00 0.00 0.00 63 1015.1
20260505190226 17 0 0.0 9.7 0.00 0.00 0.00 65 1015.2
20260505185726 17 312 1.6 12.9 0.00 0.00 0.00 65 1015.3
20260505185226 17 41 6.4 12.9 0.00 0.00 0.00 67 1015.3
20260505184727 16 312 6.4 12.9 0.00 0.00 0.00 66 1015.2
20260505184226 16 308 3.2 9.7 0.00 0.00 0.00 67 1015.3
20260505183726 16 28 1.6 8.0 0.00 0.00 0.00 68 1015.3
20260505183226 16 323 1.6 8.0 0.00 0.00 0.00 69 1015.2
20260505182726 16 0 0.0 8.0 0.00 0.00 0.00 70 1015.2
20260505182226 15 0 0.0 12.9 0.00 0.00 0.00 71 1015.2
20260505181726 15 352 6.4 12.9 0.00 0.00 0.00 72 1015.3
20260505180930 15 352 3.2 9.7 0.00 0.00 0.00 73 1015.4
20260505180429 15 0 0.0 9.7 0.00 0.00 0.00 75 1015.3
20260505175930 15 336 1.6 9.7 0.00 0.00 0.00 76 1015.2
20260505175429 14 0 0.0 11.3 0.00 0.00 0.00 77 1015.2
20260505174929 14 274 6.4 11.3 0.00 0.00 0.00 77 1015.3
20260505174430 13 0 0.0 8.0 0.00 0.00 0.00 79 1015.3
20260505173929 13 318 3.2 8.0 0.00 0.00 0.00 80 1015.2
20260505173430 13 324 3.2 6.4 0.00 0.00 0.00 82 1015.2
20260505172930 13 274 3.2 6.4 0.00 0.00 0.00 82 1015.2
20260505171929 13 316 3.2 8.0 0.00 0.00 0.00 83 1015.2
20260505171429 13 346 3.2 11.3 0.00 0.00 0.00 82 1015.2
20260505170929 13 21 3.2 12.9 0.00 0.00 0.00 82 1015.2
20260505170429 13 1 6.4 14.5 0.00 0.00 0.00 81 1015.2
20260505165930 13 351 6.4 14.5 0.00 0.00 0.00 80 1015.1
20260505165429 13 319 6.4 14.5 0.00 0.00 0.00 80 1015.0
20260505164930 13 315 6.4 17.7 0.00 0.00 0.00 80 1015.0
20260505164429 13 310 6.4 17.7 0.00 0.00 0.00 79 1015.0
20260505163929 13 313 11.3 19.3 0.00 0.00 0.00 78 1015.0
20260505163429 13 314 11.3 19.3 0.00 0.00 0.00 77 1014.9
20260505162929 13 321 9.7 17.7 0.00 0.00 0.00 75 1014.8
20260505162430 13 338 6.4 17.7 0.00 0.00 0.00 75 1014.8
20260505161929 13 338 6.4 16.1 0.00 0.00 0.00 75 1014.6
20260505161429 13 314 11.3 19.3 0.00 0.00 0.00 75 1014.7
20260505160929 14 316 12.9 19.3 0.00 0.00 0.00 74 1014.6
20260505160429 14 333 6.4 16.1 0.00 0.00 0.00 74 1014.6
20260505152930 14 315 9.7 22.5 0.00 0.00 0.00 70 1014.3
20260505152429 14 317 14.5 22.5 0.00 0.00 0.00 69 1014.2
20260505151929 14 316 12.9 20.9 0.00 0.00 0.00 69 1014.3
20260505151430 14 318 8.0 19.3 0.00 0.00 0.00 69 1014.2
20260505150929 14 321 6.4 16.1 0.00 0.00 0.00 69 1014.1
20260505150429 14 326 8.0 14.5 0.00 0.00 0.00 69 1014.0
20260505140241 14 316 3.2 8.0 0.00 0.00 0.00 69 1013.5
20260505130241 14 299 4.8 11.3 0.00 0.00 0.00 68 1013.2
20260505124741 14 278 3.2 9.7 0.00 0.00 0.00 68 1013.1
20260505124241 14 282 4.8 11.3 0.00 0.00 0.00 68 1013.0
20260505123741 14 285 4.8 11.3 0.00 0.00 0.00 67 1013.0
20260505123241 14 281 3.2 9.7 0.00 0.00 0.00 68 1012.9
20260505122243 14 305 3.2 11.3 0.00 0.00 0.00 69 1012.9
20260505121242 14 307 3.2 9.7 0.00 0.00 0.00 69 1012.9
20260505120743 14 317 4.8 11.3 0.00 0.00 0.00 69 1012.8
20260505120242 14 314 4.8 11.3 0.00 0.00 0.00 68 1012.8
20260505115305 14 316 4.8 9.7 0.00 0.00 0.00 67 1012.8
20260505114802 14 325 3.2 8.0 0.00 0.00 0.00 65 1012.8
20260505114304 14 314 3.2 8.0 0.00 0.00 0.00 65 1012.8
20260505113803 14 319 4.8 8.0 0.00 0.00 0.00 64 1012.7
20260505113302 14 320 4.8 8.0 0.00 0.00 0.00 64 1012.7
20260505112802 14 321 3.2 11.3 0.00 0.00 0.00 64 1012.7
20260505112305 14 311 4.8 12.9 0.00 0.00 0.00 64 1012.7
20260505111802 14 312 6.4 12.9 0.00 0.00 0.00 64 1012.7
20260505111302 14 325 4.8 11.3 0.00 0.00 0.00 64 1012.7
20260505110802 14 322 3.2 8.0 0.00 0.00 0.00 64 1012.7
20260505110302 14 322 4.8 8.0 0.00 0.00 0.00 64 1012.7
20260505101804 14 313 3.2 8.0 0.00 0.00 0.00 62 1012.6
20260505101302 14 317 3.2 8.0 0.00 0.00 0.00 62 1012.7
20260505100803 14 335 1.6 8.0 0.00 0.00 0.00 62 1012.7
20260505100302 14 324 3.2 8.0 0.00 0.00 0.00 61 1012.7
20260505095802 15 319 4.8 8.0 0.00 0.00 0.00 61 1012.8
20260505095304 15 321 3.2 6.4 0.00 0.00 0.00 60 1012.8
20260505094802 15 0 0.0 6.4 0.00 0.00 0.00 59 1012.8
20260505094302 15 309 1.6 8.0 0.00 0.00 0.00 59 1012.9
20260505093802 15 312 3.2 9.7 0.00 0.00 0.00 59 1012.8
20260505093302 15 318 4.8 9.7 0.00 0.00 0.00 58 1012.8
20260505092802 15 318 3.2 8.0 0.00 0.00 0.00 57 1012.9
20260505092305 15 319 3.2 8.0 0.00 0.00 0.00 57 1012.9
20260505091804 15 314 3.2 8.0 0.00 0.00 0.00 57 1013.0
20260505091302 15 321 3.2 8.0 0.00 0.00 0.00 57 1013.0
20260505090802 15 324 1.6 8.0 0.00 0.00 0.00 57 1013.0
20260505085845 15 0 0.0 4.8 0.00 0.00 0.00 56 1013.1
20260505085345 15 0 0.0 6.4 0.00 0.00 0.00 56 1013.1
20260505084846 15 348 1.6 6.4 0.00 0.00 0.00 56 1013.1
20260505084345 15 7 1.6 6.4 0.00 0.00 0.00 55 1013.1
20260505083847 15 333 1.6 6.4 0.00 0.00 0.00 55 1013.1
20260505083346 15 0 0.0 6.4 0.00 0.00 0.00 53 1013.1
20260505082846 15 279 1.6 6.4 0.00 0.00 0.00 53 1013.1
20260505082346 15 278 3.2 6.4 0.00 0.00 0.00 53 1013.1
20260505081846 15 275 3.2 6.4 0.00 0.00 0.00 53 1013.1
20260505081225 15 277 3.2 8.0 0.00 0.00 0.00 53 1013.1
20260505080725 15 307 3.2 9.7 0.00 0.00 0.00 54 1013.2
20260505080225 15 313 4.8 11.3 0.00 0.00 0.00 53 1013.2
20260505075724 15 312 4.8 11.3 0.00 0.00 0.00 53 1013.2
20260505075225 15 295 6.4 14.5 0.00 0.00 0.00 53 1013.2
20260505074724 15 305 8.0 14.5 0.00 0.00 0.00 54 1013.2
20260505074225 15 307 4.8 12.9 0.00 0.00 0.00 55 1013.2
20260505073724 15 306 4.8 12.9 0.00 0.00 0.00 56 1013.2
20260505073224 15 315 6.4 16.1 0.00 0.00 0.00 56 1013.1
20260505072725 15 315 8.0 16.1 0.00 0.00 0.00 56 1013.2
20260505072226 15 307 6.4 16.1 0.00 0.00 0.00 56 1013.1
20260505071725 15 310 8.0 16.1 0.00 0.00 0.00 58 1013.2
20260505071225 15 313 8.0 16.1 0.00 0.00 0.00 58 1013.2
20260505070724 15 296 6.4 17.7 0.00 0.00 0.00 59 1013.1
20260505070228 15 296 9.7 17.7 0.00 0.00 0.00 59 1013.1
20260505065726 15 281 9.7 16.1 0.00 0.00 0.00 59 1013.1
20260505065225 15 281 9.7 17.7 0.00 0.00 0.00 59 1013.1
20260505064725 15 285 11.3 17.7 0.00 0.00 0.00 58 1013.1
20260505064226 15 281 11.3 17.7 0.00 0.00 0.00 58 1013.0
20260505063725 15 290 11.3 19.3 0.00 0.00 0.00 59 1013.0
20260505063226 15 302 11.3 22.5 0.00 0.00 0.00 60 1013.0
20260505062725 15 307 12.9 22.5 0.00 0.00 0.00 61 1013.0
20260505062229 15 314 12.9 19.3 0.00 0.00 0.00 62 1013.0
20260505061725 15 316 12.9 19.3 0.00 0.00 0.00 62 1013.0
20260505061225 15 313 12.9 19.3 0.00 0.00 0.00 62 1013.0
20260505060725 15 310 12.9 19.3 0.00 0.00 0.00 62 1013.0
20260505060225 15 296 11.3 22.5 0.00 0.00 0.00 62 1013.0
20260505055725 15 298 11.3 24.1 0.00 0.00 0.00 63 1013.0
20260505055225 15 309 14.5 24.1 0.00 0.00 0.00 63 1013.0
20260505054724 15 317 14.5 20.9 0.00 0.00 0.00 63 1013.0
20260505053950 15 310 14.5 27.4 0.00 0.00 0.00 63 1013.0
20260505053450 15 317 14.5 27.4 0.00 0.00 0.00 62 1013.0
20260505052951 15 315 16.1 25.7 0.00 0.00 0.00 62 1013.1
20260505052450 15 318 16.1 25.7 0.00 0.00 0.00 63 1013.1
20260505051950 15 316 14.5 24.1 0.00 0.00 0.00 63 1013.2
20260505051449 16 315 14.5 24.1 0.00 0.00 0.00 64 1013.2
20260505050949 16 315 16.1 22.5 0.00 0.00 0.00 63 1013.3
20260505050450 16 315 11.3 22.5 0.00 0.00 0.00 63 1013.3
20260505041449 16 281 1.6 6.4 0.00 0.00 0.00 64 1012.8
20260505040949 16 284 3.2 6.4 0.00 0.00 0.00 63 1012.6
20260505040449 16 285 1.6 6.4 0.00 0.00 0.00 63 1012.5
20260505035949 16 284 1.6 6.4 0.00 0.00 0.00 62 1012.5
20260505035451 16 286 3.2 11.3 0.00 0.00 0.00 61 1012.5
20260505034949 16 280 4.8 11.3 0.00 0.00 0.00 60 1012.4
20260505034450 16 283 6.4 11.3 0.00 0.00 0.00 60 1012.4
20260505033950 16 276 3.2 6.4 0.00 0.00 0.00 59 1012.4
20260505033450 16 280 4.8 6.4 0.00 0.00 0.00 59 1012.3
20260505032950 17 298 1.6 4.8 0.00 0.00 0.00 59 1012.3
20260505032450 17 298 1.6 4.8 0.00 0.00 0.00 58 1012.3
20260505031949 17 299 1.6 4.8 0.00 0.00 0.00 58 1012.2
20260505030949 17 307 1.6 4.8 0.00 0.00 0.00 58 1012.1
20260505030449 17 0 0.0 3.2 0.00 0.00 0.00 58 1012.0
20260505025949 17 0 0.0 3.2 0.00 0.00 0.00 57 1012.0
20260505025449 17 0 0.0 9.7 0.00 0.00 0.00 57 1011.9
20260505024949 17 32 1.6 9.7 0.00 0.00 0.00 57 1011.9
20260505024449 17 40 4.8 9.7 0.00 0.00 0.00 56 1011.9
20260505023951 18 48 4.8 14.5 0.00 0.00 0.00 56 1011.8
20260505023449 18 44 6.4 14.5 0.00 0.00 0.00 55 1011.9
20260505022950 18 46 6.4 19.3 0.00 0.00 0.00 55 1011.8
20260505022450 18 49 8.0 19.3 0.00 0.00 0.00 55 1011.8
20260505021949 18 38 6.4 17.7 0.00 0.00 0.00 56 1011.8
20260505020949 18 35 3.2 11.3 0.00 0.00 0.00 56 1011.8
20260505020449 18 43 4.8 14.5 0.00 0.00 0.00 57 1011.8
20260505015950 18 32 6.4 14.5 0.00 0.00 0.00 56 1011.8